Startseite
Über Mich
AHP4
Galerie
Sehschlangen
Tourenbuch
Bookmarks
Elektronik
Bewertung
Geschichten
[Tagesmessung] [Jahreswerte] [Information]

Messwerte vom 29.06.2022

Die letzten Messwerte von 23:58:46 Uhr:
KategorieMesswert
Temperatur [°C]16
Luftdruck [mBar]998
Sonneneinstrahlung0
Wind [km/h]0 aus Nord
Niederschlag [l/m²]0
rel.Luftfeucht.74.1%
CO2 [ppm]676

Diagramme
Messwerte vom 29.06.2022
Tagesaggregation
KategorieMinimumMaximumSchnittSumme
Temperatur [°C]123220.3438
Luftdruck [mBar]99810041000.5313
Sonneneinstrahlung248146.0750
Wind [km/h]18
rF [%]33.986.162.69
Niederschlag [l/m²]0
CO2 [ppm]521786655.4
Einordnung alsVegetationstag
Sommertag
Heißer Tag

Messungen an benachbarten Tagen: Zur Jahresaggregation 2022
Tabelle aller Messwerte
UhrzeitTemperatur [°C]Luftdruck [mBar]SonneWind [km/h]RichtungRegen [l/m²]rF [%]CO2 [ppm]
00:01:47 15 1003 0 0 NO 0 72.5 725
00:04:49 15 1003 0 0 NO 0 72.4 725
00:07:50 14 1003 0 0 NO 0 73 736
00:10:51 14 1003 0 0 NO 0 73.1 738
00:13:48 14 1003 0 0 NO 0 73 738
00:16:48 14 1004 0 0 NO 0 73 729
00:19:47 14 1003 0 0 NO 0 72.7 724
00:22:47 14 1003 0 0 NO 0 72 723
00:25:48 14 1003 0 0 NO 0 72 726
00:28:47 14 1003 0 0 NO 0 72.1 729
00:31:49 14 1003 0 0 NO 0 71.8 736
00:34:47 14 1003 0 0 NO 0 71.3 741
00:37:49 14 1003 0 0 NO 0 71.2 747
00:40:48 14 1003 0 0 NO 0 70.6 744
00:43:47 14 1003 0 0 NO 0 70.5 743
00:46:47 14 1003 0 0 NO 0 70.5 738
00:49:45 14 1003 0 0 NO 0 70.3 741
00:52:51 14 1003 0 0 NO 0 70.5 747
00:55:46 14 1002 0 0 NO 0 70.4 755
00:58:50 14 1002 0 0 NO 0 71.1 753
01:01:46 14 1003 0 0 NO 0 72.1 760
01:04:46 14 1003 0 0 NO 0 72.5 759
01:07:48 14 1003 0 0 NO 0 72.9 764
01:10:49 14 1003 0 0 NO 0 73.3 764
01:13:47 14 1002 0 0 NO 0 73.9 758
01:16:46 13 1002 0 0 SO 0 74.5 757
01:19:47 13 1002 0 0 SO 0 74.4 764
01:22:49 13 1003 0 0 SO 0 75.3 772
01:25:46 13 1002 0 0 SO 0 75.3 772
01:28:49 13 1002 0 0 SO 0 75.2 786
01:31:49 13 1002 0 0 SO 0 75.2 785
01:34:48 13 1003 0 0 SO 0 75.4 782
01:37:49 13 1003 0 0 SO 0 76.8 768
01:40:48 13 1002 0 0 SO 0 76.6 759
01:43:49 13 1002 0 0 SO 0 78.5 758
01:46:49 13 1002 0 0 SO 0 78.7 759
01:49:47 13 1002 0 0 SO 0 77.8 756
01:52:46 13 1002 0 0 NO 0 79.4 753
01:55:48 13 1002 0 0 S 0 80.8 750
01:58:49 13 1002 0 0 S 0 81.4 753
02:01:49 13 1003 0 0 S 0 80.7 753
02:04:47 13 1002 0 0 S 0 81.1 749
02:07:50 13 1002 0 0 N 0 81.2 748
02:10:46 13 1002 0 0 N 0 80.7 750
02:13:49 13 1002 0 0 NO 0 80.7 752
02:16:48 13 1002 0 0 NO 0 80.1 755
02:19:45 13 1003 0 0 N 0 79.3 764
02:22:48 13 1002 0 0 NO 0 78.1 766
02:25:48 13 1002 0 0 SO 0 77.4 772
02:28:50 13 1002 0 0 SO 0 76.7 780
02:31:49 13 1002 0 0 SO 0 76.6 786
02:34:46 13 1002 0 0 N 0 77.2 779
02:37:46 13 1002 0 0 N 0 77.2 776
02:40:48 13 1002 0 0 NO 0 77.3 767
02:43:51 13 1002 0 1 NO 0 77.5 759
02:46:46 13 1002 0 0 NO 0 77.9 753
02:49:47 13 1003 0 0 NO 0 77.3 746
02:52:49 13 1002 0 2 O 0 76.8 743
02:55:47 14 1002 0 1 N 0 76.4 739
02:58:47 14 1002 0 2 NO 0 75.1 733
03:01:48 14 1003 0 1 NO 0 74.5 723
03:04:47 14 1002 0 5 NO 0 74.3 714
03:07:48 14 1002 0 2 NO 0 74.3 717
03:10:48 14 1002 0 3 NO 0 74 717
03:13:47 14 1002 0 0 NO 0 74.2 723
03:16:45 14 1002 0 0 O 0 74 723
03:19:48 14 1002 0 1 SO 0 74.8 720
03:22:49 14 1002 0 2 NO 0 75 714
03:25:45 14 1002 0 0 NO 0 74.9 711
03:28:47 14 1002 0 1 N 0 74.8 720
03:31:46 14 1002 0 3 O 0 75.2 717
03:34:46 14 1002 0 6 N 0 75.4 714
03:37:46 14 1002 0 5 NO 0 75 717
03:40:49 14 1002 0 0 NO 0 75.4 723
03:43:50 14 1002 0 0 SO 0 75.5 718
03:46:46 14 1002 0 0 SO 0 75 721
03:49:49 14 1002 0 0 SO 0 74.7 728
03:52:48 13 1002 0 0 O 0 74.7 728
03:55:46 13 1002 0 0 O 0 75 732
03:58:46 13 1002 0 0 O 0 75.7 739
04:01:44 13 1002 0 0 O 0 76.1 743
04:04:46 13 1002 0 0 O 0 76.9 738
04:07:45 13 1002 0 0 O 0 77.3 732
04:10:46 13 1002 0 0 O 0 76.8 732
04:13:48 13 1002 0 0 O 0 77.2 736
04:16:47 13 1002 0 0 O 0 78 735
04:19:48 13 1002 0 1 NO 0 79.7 729
04:22:47 13 1002 3 0 N 0 80.6 727
04:25:49 13 1002 4 1 N 0 80.1 728
04:28:51 13 1002 5 0 NO 0 81.1 721
04:31:48 13 1002 8 1 NO 0 80.8 719
04:34:48 13 1002 11 1 NO 0 81.2 720
04:37:49 13 1002 14 0 NO 0 80.8 731
04:40:47 12 1002 20 0 NO 0 81.6 730
04:43:49 12 1002 26 0 NW 0 81.2 720
04:46:48 12 1002 33 0 NW 0 80.3 718
04:49:48 12 1002 41 1 NW 0 80.1 724
04:52:50 12 1002 48 0 NW 0 81.7 732
04:55:48 12 1002 55 0 NW 0 81.9 736
04:58:49 12 1001 61 0 NW 0 83 729
05:01:48 12 1001 68 0 N 0 83.5 731
05:04:46 12 1002 74 0 N 0 83.9 741
05:07:47 12 1002 83 0 N 0 84.4 745
05:10:47 12 1002 92 0 N 0 83.8 734
05:13:51 12 1002 101 0 N 0 83.3 732
05:16:49 12 1002 110 0 N 0 83.2 735
05:19:47 12 1002 119 0 N 0 83.4 733
05:22:48 12 1002 126 0 N 0 83.2 726
05:25:51 12 1002 133 0 N 0 83.8 723
05:28:48 12 1002 141 0 N 0 84.3 723
05:31:50 12 1002 148 0 N 0 85 720
05:34:48 12 1002 152 0 N 0 84.7 717
05:37:47 12 1002 156 0 N 0 84.4 726
05:40:52 12 1002 159 0 NO 0 84.7 726
05:43:49 13 1002 161 2 NO 0 84.8 729
05:46:51 13 1002 163 0 NO 0 84.7 720
05:49:48 13 1003 166 0 N 0 84.6 727
05:52:50 13 1002 169 0 N 0 83.9 726
05:55:46 13 1002 170 0 N 0 83.5 721
05:58:50 13 1002 171 0 SO 0 82.9 720
06:01:51 13 1002 172 0 SO 0 82.9 730
06:04:48 13 1001 175 0 SO 0 83.2 735
06:07:48 13 1002 177 0 SO 0 83.2 731
06:10:51 13 1002 176 0 NO 0 83.1 720
06:13:50 13 1002 176 0 NO 0 82.9 724
06:16:52 13 1002 175 0 SO 0 82.9 726
06:19:50 13 1002 173 0 NW 0 83.3 736
06:22:50 14 1002 172 0 NW 0 84.6 732
06:25:47 14 1002 173 0 O 0 84.4 729
06:28:49 14 1002 173 0 O 0 83.6 726
06:31:48 14 1002 174 0 O 0 83 726
06:34:48 14 1002 175 0 O 0 83.2 727
06:37:46 14 1002 177 0 O 0 84.1 725
06:40:47 14 1002 178 1 S 0 85.3 720
06:43:52 14 1002 180 1 SO 0 84.2 723
06:46:48 14 1002 182 0 SO 0 84.4 731
06:49:47 14 1002 184 0 SO 0 84.6 723
06:52:48 15 1002 185 1 NO 0 85.2 574
06:55:47 15 1002 186 1 O 0 86.1 553
06:58:49 15 1002 187 0 N 0 85.7 623
07:01:50 15 1002 187 1 SO 0 85.7 698
07:04:48 15 1002 186 0 N 0 85.6 713
07:07:47 16 1002 186 1 O 0 85 711
07:10:51 16 1002 185 3 SO 0 85.2 699
07:13:48 16 1002 187 2 N 0 85.3 695
07:16:50 17 1002 187 1 SO 0 85 686
07:19:50 17 1002 186 0 N 0 84.4 683
07:22:48 17 1002 186 0 0 83.7 670
07:25:50 18 1002 186 0 SO 0 81.9 669
07:28:48 18 1002 186 2 O 0 81.2 667
07:31:50 18 1002 181 0 O 0 80.5 668
07:34:49 18 1002 178 0 N 0 79.9 658
07:37:50 18 1002 176 0 NW 0 78.9 658
07:40:48 18 1002 177 0 SW 0 78.7 655
07:43:48 18 1002 177 1 S 0 79.2 662
07:46:49 18 1002 178 0 SO 0 79.8 663
07:49:52 18 1002 181 0 NW 0 80.7 663
07:52:50 18 1002 187 0 N 0 80.9 661
07:55:48 20 1002 187 3 N 0 77 662
07:58:48 22 1002 187 2 N 0 73.6 670
08:01:32 18 1002 188 1 NO 0 66.6 671
08:04:33 18 1001 187 1 O 0 59.6 681
08:07:49 20 1002 188 2 SO 0 63.5 679
08:10:50 21 1002 187 5 N 0 62.3 685
08:13:48 20 1001 188 2 S 0 60.7 691
08:16:51 23 1002 187 3 S 0 62.5 703
08:19:48 22 1002 187 3 O 0 64.2 707
08:22:51 21 1002 187 1 NW 0 67.6 718
08:25:50 21 1001 187 1 NW 0 69.4 717
08:28:49 21 1002 187 0 SO 0 70.2 718
08:31:48 21 1002 188 5 S 0 70.7 715
08:34:56 21 1002 188 0 O 0 70.9 714
08:37:49 21 1002 191 4 N 0 69.9 712
08:40:48 21 1002 193 1 W 0 69.4 715
08:43:49 21 1002 192 2 SO 0 69.7 715
08:46:50 21 1002 193 5 NO 0 69.7 715
08:49:48 21 1002 194 1 N 0 68.7 712
08:52:50 21 1002 195 2 SW 0 68.7 707
08:55:47 21 1002 193 1 O 0 69.4 718
08:58:46 21 1002 192 9 N 0 68.4 719
09:01:48 21 1002 193 1 S 0 69.5 715
09:04:48 21 1002 191 4 SW 0 69.4 711
09:07:47 21 1002 192 1 O 0 70.5 712
09:10:48 21 1002 193 2 S 0 70.5 709
09:13:51 21 1002 197 1 SO 0 71.3 712
09:16:48 21 1002 202 4 N 0 71.3 715
09:19:48 21 1001 205 2 NO 0 70.9 708
09:22:47 21 1002 208 2 S 0 70.4 705
09:25:48 21 1002 208 4 NO 0 70.8 702
09:28:53 22 1002 207 3 SO 0 70.7 703
09:31:49 22 1001 208 4 SO 0 70.3 702
09:34:48 21 1002 212 3 S 0 69.8 699
09:37:50 21 1002 216 7 O 0 69.5 697
09:40:52 22 1002 218 3 SO 0 69.9 688
09:43:50 22 1002 219 3 O 0 69.3 694
09:46:50 23 1001 218 5 SO 0 67.7 693
09:49:50 23 1002 218 6 S 0 66.9 688
09:52:49 22 1002 218 3 NW 0 66.7 685
09:55:48 22 1001 220 3 O 0 67.1 682
09:58:49 22 1002 221 4 SW 0 67.9 679
10:01:53 23 1002 222 6 N 0 67.9 673
10:04:50 23 1001 222 5 SO 0 67.9 665
10:07:49 23 1002 222 2 N 0 67.4 664
10:10:46 23 1002 222 1 O 0 67.7 670
10:13:47 23 1002 221 2 O 0 66.2 679
10:16:47 24 1002 221 5 O 0 64.1 677
10:19:49 24 1002 220 9 SO 0 62.8 677
10:22:47 24 1002 221 9 O 0 61.4 667
10:25:50 24 1002 222 4 SO 0 60.4 659
10:28:49 24 1002 223 5 O 0 59 647
10:31:49 24 1002 225 2 N 0 59.9 638
10:34:49 24 1002 225 7 O 0 61 635
10:37:50 24 1002 225 8 O 0 60 630
10:40:49 24 1001 226 5 SO 0 59.1 632
10:43:48 24 1001 226 8 SW 0 58.6 632
10:46:49 24 1002 225 3 S 0 58.6 638
10:49:48 25 1001 224 4 W 0 57.9 635
10:52:48 25 1002 223 3 SW 0 57.6 626
10:55:47 25 1002 224 2 0 56.9 623
10:58:51 24 1001 224 4 SO 0 56.6 623
11:01:53 24 1001 224 12 NW 0 56.4 620
11:04:49 24 1002 224 8 S 0 56.6 618
11:07:50 25 1002 224 5 SO 0 57.7 600
11:10:48 25 1002 225 4 S 0 58.1 592
11:13:50 25 1002 225 4 NO 0 58.1 583
11:16:47 25 1001 225 7 N 0 57.3 576
11:19:51 25 1001 216 10 SO 0 57.1 566
11:22:47 25 1001 226 6 SO 0 57.1 574
11:25:49 25 1001 226 6 O 0 57.3 577
11:28:49 25 1002 227 5 SO 0 57.1 577
11:31:48 25 1002 227 2 SW 0 56.3 574
11:34:46 25 1001 227 4 O 0 56 574
11:37:52 25 1001 226 14 SO 0 56.6 570
11:40:50 25 1002 226 9 SO 0 56.5 568
11:43:48 25 1001 227 4 SO 0 56.5 568
11:46:48 25 1001 227 7 N 0 56 579
11:49:48 25 1001 227 12 O 0 54.8 580
11:52:48 26 1002 227 5 SO 0 54.3 583
11:55:48 25 1001 226 5 N 0 53.8 582
11:58:48 25 1001 224 9 S 0 53.2 586
12:01:49 25 1001 221 6 S 0 53.5 582
12:04:49 25 1001 220 8 O 0 53.3 577
12:07:49 25 1001 219 4 O 0 53.7 577
12:10:48 25 1001 218 4 SO 0 53.6 582
12:13:48 25 1001 218 4 W 0 53.6 588
12:16:49 24 1001 218 4 SO 0 53.5 603
12:19:51 24 1001 218 8 SO 0 53.4 591
12:22:47 24 1001 219 9 S 0 52.9 585
12:25:50 24 1001 221 9 S 0 54.2 568
12:28:48 24 1001 224 7 SO 0 54.2 572
12:31:49 25 1001 224 4 W 0 51.6 571
12:34:49 25 1001 226 8 O 0 49.6 565
12:37:48 25 1002 228 4 N 0 48.7 553
12:40:47 25 1001 230 4 NW 0 49 550
12:43:48 25 1002 230 5 O 0 51.1 544
12:46:47 26 1001 230 3 O 0 51.1 541
12:49:46 26 1000 231 4 O 0 47.8 542
12:52:48 26 1001 231 4 NO 0 46.9 544
12:55:49 25 1001 231 4 O 0 47.4 536
12:58:48 26 1000 231 3 NO 0 48.8 538
13:01:49 26 1000 232 5 SO 0 48.4 530
13:04:47 26 1000 232 5 O 0 46.9 521
13:07:49 26 1000 232 9 NO 0 44.7 522
13:10:48 27 1000 233 5 O 0 45.7 530
13:13:47 27 1000 232 7 S 0 45.7 542
13:16:46 27 1001 232 4 S 0 43.9 541
13:19:48 27 1000 232 3 NW 0 44.1 536
13:22:48 27 1001 232 3 SW 0 43.6 533
13:25:50 27 1000 232 10 SO 0 44 530
13:28:47 27 1001 231 4 SO 0 44.5 533
13:31:49 26 1001 231 2 SO 0 45.6 533
13:34:48 26 1001 229 3 O 0 46.4 533
13:37:49 26 1001 228 7 S 0 46.3 530
13:40:46 26 1000 228 2 O 0 46.1 533
13:43:49 26 1001 228 8 SO 0 47.4 536
13:46:47 26 1001 226 6 S 0 47.1 535
13:49:47 26 1000 225 9 SO 0 47.6 532
13:52:46 26 1001 224 4 W 0 48.3 541
13:55:48 25 1001 224 2 SO 0 47.4 539
13:58:49 25 1000 225 9 SO 0 48.7 532
14:01:48 25 1001 225 3 N 0 49.3 533
14:04:49 25 999 224 4 SO 0 50.5 535
14:07:48 25 1001 223 2 SO 0 50.3 541
14:10:46 25 1000 223 1 W 0 50.2 544
14:13:48 24 1000 223 6 O 0 51.3 544
14:16:47 24 999 223 9 S 0 51.6 541
14:19:46 24 1000 223 8 O 0 51.1 551
14:22:49 24 1000 221 3 SO 0 51.9 559
14:25:50 24 1000 222 5 SO 0 52.6 563
14:28:47 24 1000 222 5 S 0 52.5 544
14:31:47 25 1000 222 7 S 0 52.3 547
14:34:48 25 1001 223 5 SO 0 52.3 548
14:37:50 25 1000 224 9 SO 0 52.3 554
14:40:49 25 1000 224 7 S 0 52 553
14:43:48 25 1000 224 2 SO 0 51.6 556
14:46:48 25 1000 225 3 SO 0 51.6 551
14:49:46 25 1000 226 3 O 0 50.7 556
14:52:49 25 1000 227 2 SO 0 50.6 556
14:55:47 25 999 228 5 O 0 50.2 564
14:58:49 25 1000 230 4 SO 0 50.4 568
15:01:50 25 999 231 6 S 0 49.7 567
15:04:48 25 1000 231 4 SO 0 49.7 570
15:07:49 25 1000 231 1 W 0 51.8 570
15:10:48 25 999 232 5 SO 0 52.1 571
15:13:46 26 999 233 7 O 0 51 570
15:16:48 26 999 234 2 SW 0 50.7 574
15:19:51 26 1000 226 3 NO 0 51.2 573
15:22:53 26 1000 235 18 SO 0 48.9 583
15:25:48 26 999 235 4 SO 0 48 585
15:28:49 27 1000 233 2 S 0 48 586
15:31:49 26 999 231 5 O 0 47 586
15:34:49 26 999 230 3 NW 0 46.2 582
15:37:34 25 1000 230 6 SW 0 40 574
15:40:49 26 1000 225 2 NO 0 48.1 569
15:43:48 26 999 229 6 S 0 47.8 585
15:46:49 26 999 231 2 W 0 47.9 579
15:49:49 26 1001 233 4 SW 0 48.1 565
15:52:49 26 999 235 10 NO 0 48.1 562
15:55:47 26 999 237 9 NO 0 47.5 558
15:58:48 26 1000 239 1 N 0 47.9 559
16:01:49 26 999 239 3 SO 0 48.2 568
16:04:50 26 999 242 1 N 0 47.2 569
16:07:46 27 999 240 7 N 0 44.7 567
16:10:50 26 999 239 4 SO 0 44.2 562
16:13:47 27 999 241 9 N 0 44.9 567
16:16:48 27 999 245 4 W 0 46.4 556
16:19:48 27 999 241 6 S 0 46.8 550
16:22:48 28 999 246 4 SO 0 45 550
16:25:49 29 999 247 4 SO 0 42.4 550
16:28:48 30 1000 247 2 S 0 40.5 553
16:31:46 30 999 246 1 S 0 39.4 559
16:34:50 29 999 243 11 N 0 38.3 559
16:37:49 28 999 247 6 NO 0 38.4 585
16:40:35 28 999 245 9 SW 0 40 592
16:43:47 29 1000 240 2 O 0 41.1 605
16:46:48 28 999 237 6 N 0 40.3 614
16:49:45 27 999 237 3 NO 0 41.1 612
16:52:47 26 1000 242 4 O 0 44.2 612
16:55:47 26 999 237 6 N 0 44.9 615
16:58:48 25 999 237 3 O 0 45.6 609
17:01:50 25 999 237 2 SO 0 46 597
17:04:50 26 999 237 6 SO 0 46.8 594
17:07:49 26 999 238 2 O 0 46.8 603
17:10:48 26 999 239 6 O 0 47.9 603
17:13:49 27 999 247 4 NO 0 46.1 600
17:16:48 28 999 247 4 O 0 45.7 606
17:19:49 29 999 246 11 SO 0 42 612
17:22:48 29 999 245 1 O 0 40.4 614
17:25:49 29 999 245 3 SO 0 40.7 607
17:28:49 29 999 247 10 N 0 38.8 603
17:31:49 30 999 247 9 O 0 39.7 601
17:34:47 31 999 247 3 S 0 37.6 606
17:37:49 31 999 247 2 SW 0 35.3 598
17:40:54 32 999 247 7 SO 0 35.4 592
17:43:48 32 999 247 2 N 0 35 594
17:46:50 31 998 247 6 NO 0 33.9 598
17:49:49 31 999 248 3 NW 0 34.1 600
17:52:49 30 998 247 7 N 0 34.1 600
17:55:49 29 999 247 10 NW 0 34.3 590
17:58:48 29 999 247 3 0 36.2 597
18:01:49 29 999 247 9 NO 0 37.2 597
18:04:48 29 998 247 2 N 0 37.3 592
18:07:48 30 999 247 9 O 0 38.1 594
18:10:48 30 999 247 5 O 0 36.8 594
18:13:49 30 999 247 1 0 36.1 592
18:16:47 30 999 247 4 SO 0 36.1 597
18:19:48 30 998 247 3 NO 0 36.2 588
18:22:46 30 999 247 7 O 0 35.7 588
18:25:50 30 999 247 2 N 0 36.6 588
18:28:48 29 998 247 1 NW 0 36.9 593
18:31:47 29 999 247 3 N 0 36.8 592
18:34:47 29 999 247 3 O 0 36.5 591
18:37:49 29 998 247 6 O 0 36.7 588
18:40:48 28 998 246 5 O 0 37 582
18:43:49 29 999 246 3 NO 0 38.1 586
18:46:47 29 998 246 8 O 0 37.7 582
18:49:50 29 998 246 4 S 0 36.9 589
18:52:48 28 999 246 9 N 0 36.7 592
18:55:46 27 998 245 1 O 0 40.1 591
18:58:49 25 998 229 3 NO 0 42.1 594
19:01:48 25 998 232 4 O 0 43.1 594
19:04:48 24 998 222 1 SW 0 44.8 600
19:07:48 24 998 220 3 O 0 46.2 601
19:10:50 24 999 186 1 O 0 46.9 598
19:13:47 24 998 185 0 N 0 47 609
19:16:47 24 998 217 1 O 0 47.3 609
19:19:48 24 999 220 3 NO 0 47.2 597
19:22:48 24 998 217 0 S 0 48 579
19:25:51 24 998 217 0 NO 0 48.5 568
19:28:48 24 998 232 1 O 0 49.2 564
19:31:49 24 998 217 2 NO 0 49.1 568
19:34:49 23 998 214 2 N 0 48.4 577
19:37:48 23 998 215 4 O 0 48.5 582
19:40:48 23 998 216 7 O 0 48.7 586
19:43:50 23 998 214 2 N 0 48.7 585
19:46:47 23 998 217 2 N 0 48.7 594
19:49:50 23 998 216 0 SW 0 49.4 593
19:52:48 23 998 215 6 NO 0 49 593
19:55:47 23 998 214 0 N 0 48.9 591
19:58:48 23 998 214 7 NW 0 50 594
20:01:47 23 998 211 0 O 0 49.2 593
20:04:47 23 998 209 3 N 0 49.4 600
20:07:51 23 998 204 3 SO 0 50 607
20:10:50 23 998 202 2 N 0 49.9 605
20:13:50 23 998 201 0 SO 0 50 600
20:16:49 23 998 199 3 SO 0 51.5 603
20:19:48 23 998 197 0 O 0 50.8 620
20:22:49 22 999 193 0 NW 0 51.6 629
20:25:50 22 998 192 0 NW 0 52.6 633
20:28:52 22 998 191 0 NW 0 53.2 626
20:31:49 22 998 189 0 NO 0 53.7 626
20:34:47 22 998 186 0 SO 0 54.9 631
20:37:51 22 998 183 0 SO 0 55.1 626
20:40:50 21 998 182 2 NO 0 55.4 634
20:43:48 21 998 181 0 SO 0 56 632
20:46:47 21 998 177 0 N 0 55.8 644
20:49:46 21 998 175 1 N 0 56.1 647
20:52:48 21 998 172 2 N 0 56.3 656
20:55:47 21 998 168 2 O 0 56.9 653
20:58:48 21 998 165 0 NW 0 57.2 664
21:01:48 21 998 160 3 NO 0 57.9 664
21:04:48 21 998 156 1 N 0 57.7 659
21:07:47 21 998 151 1 O 0 57.6 661
21:10:49 20 998 148 0 N 0 57.8 659
21:13:47 20 998 142 0 N 0 57.6 664
21:16:49 20 998 136 1 NO 0 57.8 674
21:19:50 20 998 130 0 NO 0 58.1 681
21:22:50 20 998 122 0 NO 0 58.5 678
21:25:47 20 998 115 1 O 0 58.7 675
21:28:48 20 998 108 0 NO 0 59.3 679
21:31:50 20 998 100 0 NO 0 59.9 688
21:34:47 19 998 92 0 NO 0 60.2 688
21:37:50 19 998 83 0 NO 0 60.6 687
21:40:49 19 998 74 0 NO 0 60.7 685
21:43:47 19 999 66 0 NO 0 60.9 691
21:46:49 19 998 57 0 NO 0 61.8 696
21:49:49 19 998 48 0 NO 0 62.5 699
21:52:48 19 998 40 0 NO 0 62.8 700
21:55:49 19 999 33 0 NO 0 63.6 700
21:58:48 19 998 26 0 NO 0 64.6 705
22:01:48 18 998 19 0 NO 0 65.3 700
22:04:49 18 998 14 0 O 0 66.2 705
22:07:50 18 998 11 0 NO 0 66.3 703
22:10:47 18 999 8 0 N 0 67.1 702
22:13:47 18 999 5 0 NO 0 67.6 711
22:16:47 18 998 4 0 NO 0 67.5 720
22:19:46 18 999 3 0 NO 0 67.4 732
22:22:49 18 998 0 0 NO 0 67.9 726
22:25:49 18 998 0 0 NO 0 68.5 732
22:28:47 18 999 0 0 NO 0 68.4 723
22:31:46 17 999 0 0 NO 0 68.1 724
22:34:49 17 999 0 0 NO 0 68.9 724
22:37:49 17 998 0 0 NO 0 69.8 726
22:40:49 17 998 0 0 NO 0 69.6 703
22:43:48 17 999 0 0 NO 0 70 601
22:46:46 17 998 0 0 NO 0 70 653
22:49:46 17 998 0 0 NO 0 70.1 702
22:52:47 17 999 0 0 N 0 70.5 707
22:55:47 17 998 0 0 N 0 70.8 700
22:58:47 17 998 0 0 NO 0 70.6 685
23:01:47 17 998 0 0 NO 0 70.5 685
23:04:48 17 999 0 0 NO 0 70.6 688
23:07:47 17 999 0 0 NO 0 70.8 687
23:10:51 17 998 0 0 NO 0 71.6 685
23:13:49 17 998 0 0 NO 0 71.8 688
23:16:47 17 999 0 0 NO 0 72.2 683
23:19:47 17 998 0 0 NO 0 72.4 681
23:22:49 17 998 0 0 NO 0 72.7 670
23:25:47 17 998 0 0 NO 0 72.8 670
23:28:46 17 998 0 0 NO 0 73.4 668
23:31:48 17 998 0 0 NO 0 73.1 677
23:34:46 17 998 0 0 NO 0 73 685
23:37:49 16 998 0 0 NO 0 73.3 682
23:40:47 16 998 0 0 NO 0 73.3 684
23:43:45 16 999 0 0 N 0 73.1 685
23:46:46 16 999 0 0 N 0 73.8 688
23:49:46 16 998 0 0 N 0 74.1 685
23:52:45 16 999 0 0 N 0 74.4 684
23:55:45 16 998 0 0 N 0 74.3 673
23:58:46 16 998 0 0 N 0 74.1 676

Letzte Änderung : 04-Jan-2022
Copyright Jens Köhler, Wolfsburg, Obere Dorfstraße 10d